Showing default

JACK-002, 68417

Orbit data source: Space-Track

JACK-002, 68417 is a South Korean payload satellite in SSO that was launched on Mon, 30 Mar 2026 UTC via an FALCON 9 launch vehicle from the Air Force Western Test Range (AFWTR). Payload-class satellites include a variety of spacecraft equipped with specific instruments for various scientific and technological missions. These include communications satellites like Starlink; space stations such as the ISS; scientific satellites like the Hubble; Earth observation satellites from companies like Planet Labs, Umbra, and HawkEye 360; GPS; miniature CubeSats for education and research; and military/defense satellites.

Loading next visibility...
Identifier
68417, 2026-067B
Orbit
SSO
Country
Flag of KRKR / SKOR
Related business
Manufacturer
COSMW
Mission
Operational Commercial Imaging
Bus & Motor
CUBESAT 3U, Unknown motor
Mass
5 kg wet, 5 kg dry
Launch date (UTC)
2026-03-30 (4 months ago)
Launch vehicle
FALCON 9
Launch site
Air Force Western Test Range (AFWTR)
Object type
Payload
Rocket body
Debris
Shape & HBR
Box, 1.1 m
Radar Cross Section
0.035 m², Medium (>0.1 m² and < 1m²)

Expand to show TLE details & history
Last TLE update: 6 hours ago

TLE from 6 hours ago
0 JACK-002
1 68417U 26067B   26221.82468530  .00003985  00000-0  18822-3 0  9995
2 68417  97.4601 179.7866 0004138  90.2798 269.8911 15.19990909 20099
Epoch: 2026-08-09T19:47Z
TLE epoch observation values (Epoch: 2026-08-09T19:47:32.809Z)
Latitude
-0.00006°
Longitude
-75.41623°
Altitude
508.963 km
Speed
7.609 km/s
True Right ascension
11h 59m 08s
True Declination
0° 00' 00"
Sunlit
Object was in daylight at epoch
Visualization orbit readout
Latitude
Unknown
Longitude
Unknown
Altitude
Unknown
Speed
Unknown
Apparent Right ascension
Unknown
Apparent Declination
Unknown
Sunlit
N/A
Visualization observer readout
Local Sidereal Time
16:06:45
Azimuth
Unknown
Elevation
Unknown
Doppler factor
Unknown
Orbital elements
Apogee altitude
505.684 km
Perigee altitude
499.989 km
Semi-major axis
6,880.973 km
Eccentricity
0.00041
Inclination
97.4601°
RAAN
179.7866°
Arg. of periapsis
90.2798°
True anomaly
269.84368°
Mean anomaly
269.8911°
Eccentric anomaly
269.86739°
Mean motion
3.80249 °/min
Orbital period
94.67 mins
BSTAR
0.00018822
Loading maneuver chart data...
Computing Atmospheric mass density...
Loading historical data...
Loading historical data...
Loading historical data...
Loading historical data...
Loading historical data...
Loading historical data...
Loading historical data...

Documentation

Showing up to 5 results
|